Creek Data

    Home     View Charts     View Raw Data     Messages

ID Distance Battery Voltage Battery Current Internal Temp Internal Humidity External Temp Solar Input rssi snr Time Stamp Record
36365 15.0 3.95 -5 47 40 48 0 -79 8 03/30/2025 05:00 AM 18217
36364 15.0 4.01 -5 47 40 48 0 -79 8 03/30/2025 04:45 AM 18216
36363 15.1 3.95 -5 47 40 48 0 -80 6 03/30/2025 04:30 AM 18215
36362 0.0 4.01 -5 47 40 48 0 -80 8 03/30/2025 04:15 AM 18214
36361 15.1 3.95 -5 47 40 48 0 -79 8 03/30/2025 04:00 AM 18213
36360 15.0 4.01 -5 47 40 48 0 -80 7 03/30/2025 03:45 AM 18212
36359 15.0 3.96 -5 47 40 48 0 -80 7 03/30/2025 03:30 AM 18211
36358 15.1 4.01 -5 47 40 48 0 -79 8 03/30/2025 03:15 AM 18210
36357 15.0 3.96 -5 48 40 49 0 -80 7 03/30/2025 03:00 AM 18209
36356 15.1 3.96 -5 48 40 49 0 -79 8 03/30/2025 02:45 AM 18208
36355 15.1 4.02 -5 48 40 49 0 -80 8 03/30/2025 02:30 AM 18207
36354 0.0 3.96 -5 48 40 50 0 -79 8 03/30/2025 02:15 AM 18206
36353 0.0 4.02 -5 48 40 49 0.1 -79 8 03/30/2025 02:00 AM 18205
36352 0.0 3.97 -5 48 40 49 0 -79 8 03/30/2025 01:45 AM 18204
36351 0.0 3.97 -5 48 40 50 0.1 -79 7 03/30/2025 01:30 AM 18203
36350 15.0 3.97 -5 48 40 49 0 -79 8 03/30/2025 01:15 AM 18202
36349 0.0 3.97 -5 48 40 48 0 -80 8 03/30/2025 01:00 AM 18201
36348 15.2 4.02 -5 48 40 48 0 -80 7 03/30/2025 12:45 AM 18200
36347 0.0 3.97 -5 48 40 49 0 -79 8 03/30/2025 12:30 AM 18199
36346 15.1 4.02 -5 48 40 50 0 -79 8 03/30/2025 12:15 AM 18198
36345 15.1 3.97 -5 48 41 49 0 -80 8 03/30/2025 12:00 AM 18197
36344 15.1 3.97 -5 48 41 49 0.1 -78 8 03/29/2025 11:45 PM 18196
36343 15.1 4.03 -5 49 41 49 0 -79 8 03/29/2025 11:30 PM 18195
36342 0.0 3.97 -5 49 41 50 0 -78 8 03/29/2025 11:15 PM 18194
36341 15.1 4.03 -5 50 41 50 0 -78 8 03/29/2025 10:45 PM 18192